Simultaneous Nadir Overpasses (SNOs) Predictions

Prediction of SNOs between AQUA and METOP-A Satellite Orbit:

Table of predicted SNOs for the next 14.0 days since TLE Epoch: 7/27/2015
Index Date (AQUA) Time (AQUA) Lat,Lon (AQUA) SZA (AQUA ) Date (METOP-A) Time (METOP-A) Lat,Lon (METOP-A) SZA (METOP-A ) Distance(km) Time Diff (sec)
1 07/29/2015 13:15:04 73.88, -24.55 55.21 07/29/2015 13:14:28 73.88, -24.66 55.22 3.53 36
2 07/29/2015 14:04:31 -73.96, 142.92 124.70 07/29/2015 14:05:08 -73.98, 142.91 124.69 2.59 37
3 08/01/2015 08:49:16 73.94, 41.78 55.95 08/01/2015 08:48:49 73.93, 41.86 55.95 2.70 27
4 08/01/2015 09:38:43 -74.01,-150.74 123.97 08/01/2015 09:39:30 -73.99,-150.68 124.00 3.17 47
5 08/04/2015 03:33:51 -73.50, -58.45 123.81 08/04/2015 03:32:42 -73.41, -60.28 123.80 58.51 69
6 08/04/2015 04:23:26 73.90, 108.31 56.64 08/04/2015 04:23:11 73.93, 108.26 56.67 3.12 15
7 08/04/2015 05:12:53 -73.97, -84.20 123.29 08/04/2015 05:13:52 -73.99, -84.27 123.27 3.29 59
8 08/06/2015 23:08:08 -73.89, 7.16 122.64 08/06/2015 23:06:54 -73.86, 7.16 122.65 2.89 74
9 08/06/2015 23:57:36 73.93, 174.70 57.43 08/06/2015 23:57:32 73.92, 174.64 57.42 1.95 4
10 08/07/2015 00:47:03 -73.99, -17.79 122.50 08/07/2015 00:48:13 -73.99, -17.88 122.52 2.63 70
11 08/09/2015 18:42:18 -73.87, 73.66 121.86 08/09/2015 18:41:16 -73.85, 73.54 121.86 3.76 62
12 08/09/2015 19:31:47 73.97,-118.94 58.27 08/09/2015 19:31:53 73.96,-118.85 58.25 2.98 6




NCC Satellite Simultaneous Nadir Overpasses (SNOs) Prediction Service
